SCP
0 0 0 0 0 0 0 0 0 0 0 0 0 0 0 0 0 0 0 0 0 0 0 0 0 0 0 0 0 0 0 0
0 0 0 0 0 0 0 0 0 0 0 0 0 0 0 0 0 0 0 0 0 0 0 -0 -0 0 0 0 -0 0 0 0
0 0 0 0 0 0 0 0 0 0 0 0 0 0 0 0 0 0 0 0 0 0 0 -0 -0 -0 0 0 0 0 0 0
0 0 0 0 0 0 0 0 0 0 0 0 0 0 0 0 -0 0 0 -0 0 0 0 -0 0 0 -0 0 -0 -0 0 0
0 0 0 0 0 0 0 0 0 0 0 0 0 0 0 0 0 0 0 -0 -0 0 0 0 0 0 0 0 0 0 0 0
0 0 0 0 0 0 0 0 0 0 0 0 0 0 0 0 0 0 0 0 -0 0 0 0 0 0 0 0 0 0 0 0
0 0 0 0 0 0 0 0 0 0 0 0 0 0 0 0 0 0 0 -0 -0 0 0 0 0 0 0 -0 0 0 0 0
0 0 0 0 0 0 0 0 0 0 0 0 0 0 0 0 0 0 0 -0 -0 0 0 0 0 0 0 -0 0 0 0 0
0 0 0 0 0 0 0 0 0 0 0 0 0 0 0 0 0 0 0 0 -0 -0 0 0 0 0 0 -0 0 0 0 0
0 0 0 0 0 0 0 0 0 0 0 0 0 0 0 0 0 0 0 0 -0 0 -0 0 0 0 0 0 0 0 0 0
0 0 0 0 0 0 0 0 0 0 0 0 0 0 0 0 0 0 0 0 0 0 0 0 0 0 0 0 0 -0 0 0
0 0 0 0 0 0 0 0 0 0 0 0 0 0 0 0 0 0 0 0 0 0 0 0 0 0 0 0 0 0 0 0
0 0 0 0 0 0 0 0 0 0 0 0 0 0 0 0 0 0 0 0 0 0 0 0 0 0 0 0 0 0 0 0
0 0 0 0 0 0 0 0 0 0 0 0 0 0 0 0 0 0 0 0 0 0 0 0 0 0 0 0 0 0 0 0
0 0 0 0 0 0 0 0 0 0 0 0 0 0 0 0 -0 0 0 0 0 0 0 0 0 0 0 0 0 0 0 0
0 0 0 0 0 0 0 0 0 0 0 0 0 0 0 0 0 -0 -0 0 0 0 0 0 0 0 0 0 0 0 0 0
0 0 0 0 0 0 0 0 0 0 0 0 0 0 0 0 0 0 -0 0 0 0 0 0 0 0 0 0 0 0 0 0
0 0 0 0 0 0 0 0 0 0 0 0 0 0 0 0 0 0 0 0 0 0 0 0 0 0 0 0 0 0 0 0
0 0 0 0 0 0 0 0 0 0 0 0 0 0 0 0 0 0 0 0 0 0 0 0 -0 0 0 0 0 0 0 0
0 0 0 0 0 0 0 0 0 0 0 0 0 0 0 0 0 0 0 0 0 0 0 0 0 -0 0 0 0 0 0 0
Wind_Speed_500mb
11 3 11 9 8 7 10 11 14 15 20 35 32 30 34 39 43 48 44 38 26 30 40 35 34 30 26 24 18 20 14 14
2 4 10 8 1 3 6 10 18 29 30 37 38 33 35 34 44 49 43 44 25 30 32 36 34 34 26 24 22 23 17 20
12 11 11 12 11 14 18 27 32 34 42 40 28 29 33 43 51 48 45 43 26 21 27 32 43 40 27 24 25 22 21 19
14 13 14 15 20 22 23 27 36 42 41 27 18 20 31 41 50 39 37 27 17 10 20 18 34 37 32 29 26 21 13 15
13 15 18 18 17 20 29 38 44 45 38 33 30 31 34 37 40 37 29 32 28 19 9 8 19 37 27 31 27 23 9 14
11 16 18 18 25 33 38 40 36 34 38 41 40 31 30 37 39 35 32 27 30 20 10 11 22 25 26 33 32 25 16 16
14 16 19 20 26 34 40 37 36 47 40 35 40 38 28 31 37 35 34 29 25 16 23 17 18 25 24 31 31 30 25 21
14 14 14 23 29 38 43 43 44 38 41 36 34 32 30 28 31 34 35 26 15 16 13 11 18 27 29 34 35 27 24 27
11 9 19 29 37 40 43 39 34 33 36 33 31 29 33 33 29 31 30 22 12 16 15 11 10 27 34 38 32 26 25 29
12 21 29 33 40 35 41 42 35 32 38 32 31 29 32 35 31 24 19 19 14 17 8 13 11 20 28 38 32 26 29 24
15 23 29 37 34 32 35 41 40 37 39 36 29 34 39 28 27 27 20 15 18 14 14 3 19 22 33 32 32 31 31 29
14 21 27 31 38 30 33 37 37 39 38 36 27 28 37 28 18 20 16 10 16 18 13 7 5 27 31 34 35 34 33 34
17 21 26 30 28 35 28 36 38 40 34 37 28 24 36 26 26 20 15 11 22 13 20 8 8 15 29 26 36 35 31 29
19 30 30 28 30 34 32 32 29 33 33 38 27 22 29 23 26 21 9 6 16 7 23 10 15 10 32 29 36 33 28 25
26 30 30 29 39 38 37 29 33 37 29 30 31 18 23 26 25 20 18 10 7 27 16 24 18 14 8 31 36 31 26 24
28 30 30 30 40 38 37 35 32 31 23 20 20 23 20 22 21 21 23 19 11 24 8 12 26 15 14 25 29 28 36 23
33 30 34 37 39 40 40 35 31 26 13 17 20 21 21 18 25 20 17 12 5 16 17 11 22 20 8 19 25 26 31 30
25 32 37 36 38 41 35 34 18 17 14 14 21 20 20 23 29 23 14 10 12 7 8 14 16 7 5 11 26 28 29 25
30 35 34 35 42 37 29 26 20 20 19 14 16 16 17 19 26 19 19 15 6 10 13 17 17 5 2 7 11 21 25 27
33 35 35 35 38 37 29 31 28 24 20 17 20 18 21 10 14 14 11 11 14 15 16 11 11 16 15 11 17 20 23 26
Wind_Direction_500mb
183 204 298 278 247 295 306 280 297 311 315 317 328 317 323 324 329 330 328 320 294 255 258 244 245 242 234 223 233 249 259 253
117 43 80 66 53 322 321 322 324 329 328 333 326 322 327 332 336 334 327 325 291 257 248 242 246 228 243 211 227 235 233 247
112 93 55 29 5 346 335 329 331 336 336 344 341 333 338 333 333 330 330 328 280 245 245 254 237 220 242 216 202 221 240 216
90 47 23 357 346 341 334 335 337 339 336 333 338 350 344 340 335 336 333 340 15 284 270 255 219 212 227 196 214 209 231 210
49 13 3 359 354 347 346 346 344 342 342 334 330 345 346 339 341 342 330 337 329 325 286 252 224 216 216 202 202 211 241 216
38 6 360 356 347 342 341 340 340 340 338 337 345 337 343 339 343 343 341 327 330 282 267 232 221 210 203 200 197 210 220 210
15 12 351 343 342 351 345 337 345 344 349 345 350 349 345 339 346 348 343 328 316 279 242 234 234 209 200 192 199 207 210 208
358 355 347 344 354 354 352 350 349 356 351 347 339 352 352 347 341 347 349 334 329 309 269 257 223 217 197 192 205 210 208 197
14 1 355 360 1 359 355 358 4 9 3 1 7 359 344 337 334 343 352 0 340 323 304 233 237 214 193 186 191 198 193 186
19 8 10 4 357 352 351 2 360 352 349 348 356 357 349 343 327 327 346 347 1 358 326 263 246 194 185 181 189 196 195 197
353 353 355 358 358 352 345 354 354 357 349 344 339 341 344 342 347 338 350 360 5 358 356 7 239 192 196 189 195 202 194 198
328 339 353 351 353 348 352 349 347 343 348 348 343 352 358 355 345 335 355 331 349 357 359 353 183 190 196 204 198 198 193 202
302 330 338 338 348 357 356 352 347 344 347 349 341 343 358 353 3 345 3 358 342 352 9 12 20 138 185 184 188 188 189 196
298 323 317 330 349 349 345 344 338 341 355 351 348 338 354 347 350 15 359 17 309 63 33 35 21 78 191 175 176 183 185 191
321 315 306 321 340 336 344 334 332 339 336 348 349 2 4 358 0 7 22 18 2 17 33 40 26 129 212 167 180 180 185 195
323 314 315 325 333 332 327 327 327 332 339 9 12 5 357 4 9 338 324 14 34 4 53 45 28 54 184 188 195 202 205 212
309 310 324 328 329 319 320 329 338 341 343 343 343 348 351 346 343 352 310 281 343 47 57 19 17 19 36 203 200 201 198 203
312 313 322 323 321 316 319 334 338 339 324 337 354 333 7 359 358 358 331 254 251 286 342 342 351 9 19 208 210 210 206 205
307 301 307 320 319 322 314 335 332 333 324 318 316 322 332 353 353 350 359 6 333 254 278 294 299 289 23 173 204 224 226 225
310 311 317 317 312 315 308 326 335 338 330 298 297 297 316 318 321 335 345 352 352 350 341 319 273 245 231 230 188 186 207 229
Wind_Speed_850mb
11 3 11 9 8 7 10 11 14 15 20 35 32 30 34 39 43 48 44 38 26 30 40 35 34 30 26 24 18 20 14 14
2 4 10 8 1 3 6 10 18 29 30 37 38 33 35 34 44 49 43 44 25 30 32 36 34 34 26 24 22 23 17 20
12 11 11 12 11 14 18 27 32 34 42 40 28 29 33 43 51 48 45 43 26 21 27 32 43 40 27 24 25 22 21 19
14 13 14 15 20 22 23 27 36 42 41 27 18 20 31 41 50 39 37 27 17 10 20 18 34 37 32 29 26 21 13 15
13 15 18 18 17 20 29 38 44 45 38 33 30 31 34 37 40 37 29 32 28 19 9 8 19 37 27 31 27 23 9 14
11 16 18 18 25 33 38 40 36 34 38 41 40 31 30 37 39 35 32 27 30 20 10 11 22 25 26 33 32 25 16 16
14 16 19 20 26 34 40 37 36 47 40 35 40 38 28 31 37 35 34 29 25 16 23 17 18 25 24 31 31 30 25 21
14 14 14 23 29 38 43 43 44 38 41 36 34 32 30 28 31 34 35 26 15 16 13 11 18 27 29 34 35 27 24 27
11 9 19 29 37 40 43 39 34 33 36 33 31 29 33 33 29 31 30 22 12 16 15 11 10 27 34 38 32 26 25 29
12 21 29 33 40 35 41 42 35 32 38 32 31 29 32 35 31 24 19 19 14 17 8 13 11 20 28 38 32 26 29 24
15 23 29 37 34 32 35 41 40 37 39 36 29 34 39 28 27 27 20 15 18 14 14 3 19 22 33 32 32 31 31 29
14 21 27 31 38 30 33 37 37 39 38 36 27 28 37 28 18 20 16 10 16 18 13 7 5 27 31 34 35 34 33 34
17 21 26 30 28 35 28 36 38 40 34 37 28 24 36 26 26 20 15 11 22 13 20 8 8 15 29 26 36 35 31 29
19 30 30 28 30 34 32 32 29 33 33 38 27 22 29 23 26 21 9 6 16 7 23 10 15 10 32 29 36 33 28 25
26 30 30 29 39 38 37 29 33 37 29 30 31 18 23 26 25 20 18 10 7 27 16 24 18 14 8 31 36 31 26 24
28 30 30 30 40 38 37 35 32 31 23 20 20 23 20 22 21 21 23 19 11 24 8 12 26 15 14 25 29 28 36 23
33 30 34 37 39 40 40 35 31 26 13 17 20 21 21 18 25 20 17 12 5 16 17 11 22 20 8 19 25 26 31 30
25 32 37 36 38 41 35 34 18 17 14 14 21 20 20 23 29 23 14 10 12 7 8 14 16 7 5 11 26 28 29 25
30 35 34 35 42 37 29 26 20 20 19 14 16 16 17 19 26 19 19 15 6 10 13 17 17 5 2 7 11 21 25 27
33 35 35 35 38 37 29 31 28 24 20 17 20 18 21 10 14 14 11 11 14 15 16 11 11 16 15 11 17 20 23 26
Wind_Direction_850mb
183 204 298 278 247 295 306 280 297 311 315 317 328 317 323 324 329 330 328 320 294 255 258 244 245 242 234 223 233 249 259 253
117 43 80 66 53 322 321 322 324 329 328 333 326 322 327 332 336 334 327 325 291 257 248 242 246 228 243 211 227 235 233 247
112 93 55 29 5 346 335 329 331 336 336 344 341 333 338 333 333 330 330 328 280 245 245 254 237 220 242 216 202 221 240 216
90 47 23 357 346 341 334 335 337 339 336 333 338 350 344 340 335 336 333 340 15 284 270 255 219 212 227 196 214 209 231 210
49 13 3 359 354 347 346 346 344 342 342 334 330 345 346 339 341 342 330 337 329 325 286 252 224 216 216 202 202 211 241 216
38 6 360 356 347 342 341 340 340 340 338 337 345 337 343 339 343 343 341 327 330 282 267 232 221 210 203 200 197 210 220 210
15 12 351 343 342 351 345 337 345 344 349 345 350 349 345 339 346 348 343 328 316 279 242 234 234 209 200 192 199 207 210 208
358 355 347 344 354 354 352 350 349 356 351 347 339 352 352 347 341 347 349 334 329 309 269 257 223 217 197 192 205 210 208 197
14 1 355 360 1 359 355 358 4 9 3 1 7 359 344 337 334 343 352 0 340 323 304 233 237 214 193 186 191 198 193 186
19 8 10 4 357 352 351 2 360 352 349 348 356 357 349 343 327 327 346 347 1 358 326 263 246 194 185 181 189 196 195 197
353 353 355 358 358 352 345 354 354 357 349 344 339 341 344 342 347 338 350 360 5 358 356 7 239 192 196 189 195 202 194 198
328 339 353 351 353 348 352 349 347 343 348 348 343 352 358 355 345 335 355 331 349 357 359 353 183 190 196 204 198 198 193 202
302 330 338 338 348 357 356 352 347 344 347 349 341 343 358 353 3 345 3 358 342 352 9 12 20 138 185 184 188 188 189 196
298 323 317 330 349 349 345 344 338 341 355 351 348 338 354 347 350 15 359 17 309 63 33 35 21 78 191 175 176 183 185 191
321 315 306 321 340 336 344 334 332 339 336 348 349 2 4 358 0 7 22 18 2 17 33 40 26 129 212 167 180 180 185 195
323 314 315 325 333 332 327 327 327 332 339 9 12 5 357 4 9 338 324 14 34 4 53 45 28 54 184 188 195 202 205 212
309 310 324 328 329 319 320 329 338 341 343 343 343 348 351 346 343 352 310 281 343 47 57 19 17 19 36 203 200 201 198 203
312 313 322 323 321 316 319 334 338 339 324 337 354 333 7 359 358 358 331 254 251 286 342 342 351 9 19 208 210 210 206 205
307 301 307 320 319 322 314 335 332 333 324 318 316 322 332 353 353 350 359 6 333 254 278 294 299 289 23 173 204 224 226 225
310 311 317 317 312 315 308 326 335 338 330 298 297 297 316 318 321 335 345 352 352 350 341 319 273 245 231 230 188 186 207 229